Date,TemperatureHighF,TemperatureAvgF,TemperatureLowF,DewpointHighF,DewpointAvgF,DewpointLowF,HumidityHigh,HumidityAvg,HumidityLow,PressureMaxIn,PressureMinIn,WindSpeedMaxMPH,WindSpeedAvgMPH,GustSpeedMaxMPH,PrecipitationSumIn
2013-1-1,40.0,36.3,27.5,32.8,26.7,17.0,77,68,58,29.95,29.76,32,17,33,0.02
2013-1-2,32.8,27.3,21.9,22.1,17.1,11.1,75,65,57,30.11,29.93,24,11,26,0.00
2013-1-3,30.3,22.3,13.0,22.0,10.0,1.0,72,59,41,30.18,30.03,23,9,23,0.00
2013-1-4,39.3,35.4,30.1,32.0,27.6,21.9,79,73,64,30.04,29.87,37,19,40,0.00
2013-1-5,45.3,38.3,33.4,31.7,28.3,23.9,77,68,50,30.29,29.91,27,12,28,0.00
2013-1-6,42.4,36.8,34.0,38.4,31.9,24.7,95,83,67,30.25,29.97,26,5,26,0.04
2013-1-7,44.4,38.6,35.8,35.6,33.1,29.0,91,81,56,30.44,30.00,17,8,17,0.12
2013-1-8,44.9,42.5,37.7,40.5,38.4,34.9,93,85,78,30.42,30.33,33,17,33,0.00
2013-1-9,47.7,41.4,35.1,44.0,39.4,33.8,97,93,73,30.42,30.05,36,9,36,0.00
2013-1-10,49.2,44.1,37.3,39.0,31.8,27.9,74,62,47,30.54,30.11,42,13,42,0.00
2013-1-11,41.3,38.1,33.3,41.0,33.3,27.0,100,83,69,30.54,30.23,18,5,18,0.20
2013-1-12,45.2,43.0,40.7,44.8,42.6,40.0,99,98,97,30.24,30.13,16,5,18,0.06
2013-1-13,46.4,44.1,41.6,46.4,43.9,41.0,100,99,99,30.20,30.06,13,5,13,0.14
2013-1-14,51.3,46.7,43.0,49.9,44.6,36.7,100,93,63,30.27,29.98,26,10,26,0.18
2013-1-15,43.0,23.4,-13.5,39.3,19.6,-17.4,100,85,79,30.32,30.22,10,3,14,0.18
2013-1-16,41.4,14.8,-15.6,40.9,14.3,-18.2,99,98,94,30.26,29.76,21,7,21,0.80
2013-1-17,44.3,37.5,-12.2,38.3,32.0,-13.5,100,81,67,30.10,29.89,24,10,24,0.00
2013-1-18,35.3,28.1,25.3,29.0,13.3,1.0,93,56,35,30.52,30.03,27,10,27,0.00
2013-1-19,45.5,41.5,29.6,41.1,35.0,17.8,88,78,61,30.46,29.96,41,24,41,0.00
2013-1-20,47.3,43.2,31.8,42.0,35.0,12.8,91,74,40,29.96,29.62,33,21,33,0.00
2013-1-21,31.6,27.9,24.7,26.2,16.2,8.0,94,64,41,30.13,29.79,25,7,25,0.00
2013-1-22,26.1,23.5,17.4,24.0,12.2,1.0,93,64,38,30.11,29.76,32,14,32,0.00
2013-1-23,17.7,14.9,10.9,6.5,1.3,-6.0,66,54,44,30.19,30.09,33,16,33,1.64
2013-1-24,21.5,14.7,8.3,3.9,-1.5,-7.7,61,48,35,30.26,30.09,35,15,35,0.00
2013-1-25,24.8,19.0,13.1,15.8,2.4,-3.2,86,49,34,30.35,30.07,30,11,30,0.00
2013-1-26,26.8,19.9,14.4,15.6,8.6,-3.8,87,64,35,30.26,30.01,28,9,28,0.00
2013-1-27,31.9,20.9,16.7,9.0,5.8,3.1,65,53,32,30.43,30.26,26,12,26,0.00
2013-1-28,33.2,31.3,27.7,32.2,25.8,9.0,96,82,42,30.44,0.00,19,5,19,0.00
2013-1-29,36.3,33.4,31.3,34.7,32.3,30.0,97,96,93,30.21,29.99,10,3,10,0.20
2013-1-30,49.0,42.2,35.6,48.7,41.1,-99.9,99,97,95,30.18,29.56,33,13,34,0.10
2013-1-31,51.8,44.3,33.9,51.3,37.0,-99.9,99,78,46,29.64,29.09,49,26,49,0.64
2013-2-1,33.8,30.3,25.0,20.5,14.4,8.8,63,51,40,30.12,29.63,35,19,35,0.00
2013-2-2,32.6,27.7,22.5,25.9,15.4,-99.9,86,61,47,30.28,30.06,33,13,33,1.94
2013-2-3,36.1,27.5,23.0,25.5,21.4,17.8,88,78,63,30.07,29.71,21,6,21,0.00
2013-2-4,30.5,27.5,25.6,22.8,15.1,-99.9,85,61,44,29.97,29.73,30,11,31,0.00
2013-2-5,28.8,25.8,23.9,26.6,18.5,10.0,93,74,51,30.03,29.92,13,5,13,0.00
2013-2-6,38.7,32.2,28.3,30.4,23.7,8.4,93,73,41,30.30,29.90,24,8,24,0.02
2013-2-7,30.4,26.7,22.6,23.0,10.1,3.9,80,50,34,30.53,30.29,14,6,17,0.00
2013-2-8,33.3,32.2,28.6,32.0,29.2,22.9,97,89,78,30.47,29.45,56,18,56,0.18
2013-2-9,42.5,35.0,28.0,41.7,33.5,25.6,98,94,88,30.41,29.69,28,12,37,0.98
2013-2-10,31.6,28.5,29.8,30.0,18.7,-99.9,92,84,88,30.44,30.39,7,-72,0,0.00
2013-2-11,42.5,36.1,28.1,42.0,34.9,26.0,98,95,88,30.39,29.64,28,13,0,0.49
2013-2-12,43.9,39.4,34.4,40.0,31.2,27.0,98,74,54,29.93,29.64,31,14,0,0.03
2013-2-13,38.4,34.3,31.5,30.7,29.5,24.0,89,83,59,29.92,29.68,19,6,19,0.00
2013-2-14,43.1,35.5,29.7,33.0,29.9,22.3,96,81,44,30.05,29.71,16,6,16,0.18
2013-2-15,41.3,37.9,34.8,39.0,35.7,32.5,96,92,86,30.07,29.97,18,10,19,0.00
2013-2-16,39.6,34.7,32.3,38.3,32.5,30.5,100,92,78,29.97,29.64,16,6,20,0.02
2013-2-17,32.8,24.4,19.1,31.0,16.6,6.4,98,73,44,29.73,29.37,41,22,46,0.02
2013-2-18,31.0,22.0,17.9,13.3,8.0,5.0,67,55,35,30.21,29.71,40,22,40,0.00
2013-2-19,45.1,37.1,28.9,43.2,31.1,10.8,97,80,46,30.21,29.61,41,13,41,0.84
2013-2-20,38.6,33.5,27.9,37.7,22.5,13.3,97,65,46,29.83,29.59,38,21,37,0.00
2013-2-21,34.9,29.4,26.5,18.6,16.7,14.3,70,59,44,30.16,29.80,31,17,31,0.00
2013-2-22,36.8,32.8,28.4,28.4,23.9,17.8,82,70,62,30.37,30.16,24,7,24,0.00
2013-2-23,37.7,35.0,32.6,36.3,31.7,26.4,96,88,76,30.34,29.86,19,8,19,0.50
2013-2-24,42.3,37.6,31.6,41.5,36.5,30.6,97,96,92,29.89,29.61,26,9,26,1.46
2013-2-25,42.5,34.7,30.2,32.2,30.2,27.0,96,84,59,30.28,29.88,16,5,16,0.04
2013-2-26,42.7,36.8,33.4,35.1,31.4,28.0,94,81,60,30.36,30.14,19,6,19,0.00
2013-2-27,42.5,40.6,38.0,41.4,39.3,34.5,100,95,85,30.14,29.59,48,20,48,0.94
2013-2-28,41.6,38.4,36.6,39.5,37.2,35.7,98,95,90,29.67,29.53,17,4,19,0.02
2013-3-1,43.2,39.5,36.9,37.5,32.6,28.1,97,77,60,29.69,29.53,20,5,20,0.00
2013-3-2,41.8,37.7,35.0,33.3,30.0,27.0,84,74,60,29.71,29.64,20,8,20,0.00
2013-3-3,38.2,36.0,33.4,32.5,29.1,26.7,87,76,68,29.66,29.58,22,8,22,0.00
2013-3-4,39.7,35.6,30.9,30.0,26.0,23.0,87,68,56,29.74,29.58,27,14,27,0.00
2013-3-5,44.2,37.4,32.5,34.7,29.6,24.0,92,74,60,30.08,29.74,24,8,24,0.00
2013-3-6,40.4,37.9,35.3,36.1,34.7,32.9,94,88,76,30.07,29.91,44,16,44,0.02
2013-3-7,37.4,35.0,33.5,34.6,33.4,32.0,95,94,88,29.93,29.85,44,18,44,1.28
2013-3-8,40.4,34.4,32.6,35.0,32.4,29.0,100,93,66,30.08,29.86,34,14,34,0.68
2013-3-9,39.9,36.9,31.4,32.2,30.6,29.0,93,78,65,30.34,30.08,31,11,31,0.02
2013-3-10,41.6,37.1,31.9,34.7,32.5,29.9,93,84,71,30.42,30.33,18,7,18,0.00
2013-3-11,43.4,39.7,35.9,40.5,36.9,32.8,98,90,83,30.37,30.20,17,10,18,0.00
2013-3-12,49.4,46.2,41.4,48.6,44.8,39.8,97,95,91,30.21,29.78,46,21,46,1.54
2013-3-13,50.2,44.4,39.9,45.7,35.1,25.9,98,72,44,29.82,29.71,22,9,22,0.14
2013-3-14,39.8,34.0,26.7,30.9,21.7,10.2,76,61,47,29.87,29.74,34,14,34,0.00
2013-3-15,38.7,31.4,23.3,30.4,19.1,9.9,74,60,35,29.91,29.69,36,15,36,0.00
2013-3-16,38.4,35.3,32.0,30.0,22.8,12.3,81,61,38,29.89,29.71,30,10,30,0.00
2013-3-17,39.3,34.3,29.2,29.0,17.7,7.0,78,53,30,30.32,29.89,22,8,22,0.00
2013-3-18,36.2,30.1,22.4,28.7,15.8,4.0,84,55,41,30.47,30.25,25,9,25,0.00
2013-3-19,41.9,36.5,31.4,41.1,35.1,28.5,97,95,84,30.25,29.52,34,16,34,1.38
2013-3-20,40.1,35.5,31.4,33.2,26.2,20.0,91,70,47,29.85,29.69,34,18,34,0.00
2013-3-21,38.5,33.9,29.7,34.4,27.6,22.5,96,78,57,29.85,29.60,16,7,20,0.00
2013-3-22,39.6,34.2,29.0,29.9,24.7,17.3,96,70,44,29.79,29.63,34,13,34,0.12
2013-3-23,42.6,37.3,32.9,26.6,23.7,19.8,75,59,42,29.82,29.68,34,19,34,0.00
2013-3-24,47.2,38.8,34.1,34.6,27.9,22.7,82,65,44,29.87,29.76,26,11,26,0.00
2013-3-25,43.3,38.5,34.4,35.9,31.7,27.9,89,77,58,29.79,29.48,35,10,35,0.02
2013-3-26,47.2,39.9,33.8,35.5,31.0,25.4,93,71,47,29.81,29.48,24,9,24,0.00
2013-3-27,51.2,42.3,34.8,35.5,28.6,23.0,76,59,34,29.88,29.76,28,8,29,0.00
2013-3-28,47.1,41.7,37.5,37.2,34.1,29.0,92,75,53,30.04,29.87,20,7,20,0.00
2013-3-29,51.6,44.3,39.3,38.4,35.7,32.0,85,72,54,30.06,30.00,26,8,27,0.00
2013-3-30,49.7,44.3,40.5,38.2,34.9,31.0,83,70,49,30.12,30.03,23,8,23,0.00
2013-3-31,47.4,43.1,38.9,43.6,38.1,27.9,93,83,63,30.16,29.76,34,9,34,0.08
2013-4-1,47.1,44.0,38.6,45.1,39.7,17.2,97,86,41,29.83,29.59,40,19,40,0.20
2013-4-2,41.2,36.8,33.3,26.8,18.7,12.7,64,48,35,30.01,29.83,35,17,35,0.00
2013-4-3,44.1,37.8,33.4,21.8,19.1,15.7,59,47,33,30.19,29.98,35,21,34,0.00
2013-4-4,40.9,37.5,32.5,35.8,25.9,17.0,83,64,41,30.35,30.13,37,19,37,0.00
2013-4-5,49.4,43.2,40.5,42.5,37.8,27.0,97,82,48,30.13,29.67,29,12,30,0.02
2013-4-6,47.4,40.3,35.5,32.1,20.9,5.7,75,48,19,30.36,29.87,27,12,28,0.00
2013-4-7,46.4,42.8,37.7,43.2,36.8,31.9,90,80,61,30.37,30.08,32,15,32,0.00
2013-4-8,51.9,46.0,43.3,44.9,42.6,40.8,95,88,74,30.14,30.01,30,11,30,0.00
2013-4-9,69.1,48.3,45.0,47.7,44.3,41.0,96,87,42,30.14,29.87,25,12,25,0.06
2013-4-10,57.6,48.4,44.5,48.2,44.4,42.3,95,86,67,30.06,29.88,43,7,43,0.38
2013-4-11,49.7,46.4,44.6,46.5,42.1,35.5,97,85,68,30.15,29.83,22,7,22,0.08
2013-4-12,44.8,42.1,38.7,40.5,36.5,30.0,96,81,59,30.17,29.71,38,15,38,1.32
2013-4-13,48.1,42.3,38.7,42.3,39.1,36.4,96,88,73,29.97,29.70,28,9,28,0.08
2013-4-14,53.2,47.5,44.2,43.2,37.4,27.0,90,70,40,30.23,29.96,26,11,26,0.00
2013-4-15,55.4,45.3,39.4,42.3,36.5,28.0,88,72,57,30.44,30.23,14,7,15,0.00
2013-4-16,50.9,46.3,43.0,45.0,41.9,40.1,92,85,73,30.44,30.34,21,11,21,0.00
2013-4-18,57.1,51.3,48.8,47.8,42.8,-99.9,90,75,59,30.38,0.00,25,3,25,0.00
2013-4-19,58.7,53.2,50.5,58.0,52.2,47.7,98,97,90,30.18,29.76,47,21,47,0.04
2013-4-20,57.2,50.8,48.0,56.6,46.6,32.4,98,86,54,30.21,29.69,46,18,46,0.48
2013-4-21,49.9,43.9,36.9,34.3,27.0,22.0,71,51,37,30.69,30.21,23,7,23,0.00
2013-4-22,50.5,43.8,38.7,38.4,33.3,25.9,82,67,45,30.73,30.57,30,12,30,0.00
2013-4-23,45.2,43.5,41.5,43.3,41.1,34.0,95,91,75,30.57,30.02,30,13,30,0.28
2013-4-24,51.9,46.7,43.2,47.2,44.3,41.8,97,91,83,30.02,29.88,32,17,32,0.04
2013-4-25,54.7,50.2,47.5,50.1,45.5,39.0,98,84,58,30.26,29.92,24,11,24,0.02
2013-4-26,55.2,50.0,44.3,46.0,41.5,30.5,89,73,50,30.43,30.26,18,8,18,0.00
2013-4-27,57.2,49.5,44.6,45.4,42.1,38.0,95,77,55,30.43,30.34,16,6,16,0.00
2013-4-28,54.6,50.6,46.5,48.9,46.2,42.0,92,85,75,30.38,30.28,18,8,18,0.00
2013-4-29,56.7,52.2,49.2,48.8,45.0,40.4,91,77,60,30.31,30.26,13,6,13,0.00
2013-4-30,59.5,52.8,45.9,48.5,40.9,34.4,92,66,44,30.38,30.27,15,6,18,0.00
2013-5-1,59.9,51.7,43.9,50.2,45.5,38.8,92,80,60,30.48,30.38,19,6,19,0.00
2013-5-2,61.7,53.2,46.0,52.8,47.4,42.0,93,81,66,30.48,30.38,22,6,22,0.00
2013-5-3,52.7,47.9,43.0,44.9,42.6,40.2,92,82,73,30.49,30.36,30,8,30,0.00
2013-5-4,52.9,48.1,43.4,44.8,41.2,38.7,93,78,63,30.36,30.29,25,9,25,0.00
2013-5-5,55.7,48.5,42.0,46.9,43.0,39.8,94,82,64,30.32,30.25,22,9,22,0.00
2013-5-6,58.6,49.4,44.0,52.1,46.5,42.4,97,90,76,30.31,30.17,15,5,15,0.00
2013-5-7,64.1,55.0,45.4,57.7,52.7,44.6,98,92,79,30.21,30.14,16,4,16,0.02
2013-5-8,62.7,58.2,55.9,59.1,56.5,54.5,98,94,87,30.20,30.05,22,10,22,0.30
2013-5-9,62.7,57.1,52.5,61.2,56.2,52.0,98,97,92,30.05,29.88,20,6,20,0.46
2013-5-10,60.2,56.7,54.1,57.0,55.2,53.3,99,95,87,29.99,29.90,23,12,23,0.02
2013-5-11,60.7,57.3,54.7,59.9,56.1,54.0,99,96,93,29.97,29.74,33,17,33,2.56
2013-5-12,60.5,56.5,54.6,56.3,52.8,38.9,99,89,51,29.84,29.62,28,14,28,0.20
2013-5-13,55.9,51.9,49.0,42.6,37.0,29.6,69,57,44,30.03,29.84,36,19,36,0.00
2013-5-14,55.8,50.5,43.4,45.8,36.3,29.9,75,59,43,30.07,29.99,30,11,30,0.00
2013-5-15,56.7,53.4,49.1,54.3,48.1,38.5,94,83,61,30.09,29.72,39,17,39,0.00
2013-5-16,60.5,57.6,53.7,54.4,52.6,50.5,95,84,71,29.80,29.68,30,16,30,0.00
2013-5-17,65.2,58.6,53.7,52.8,47.2,41.5,83,67,45,30.23,29.80,19,7,19,0.00
2013-5-18,59.0,56.0,53.0,54.0,51.4,47.2,92,85,77,30.33,30.23,23,12,23,0.00
2013-5-19,59.7,56.8,54.9,54.6,52.5,50.7,95,86,76,30.38,30.25,18,10,18,0.12
2013-5-20,59.6,57.8,56.1,58.5,57.0,54.7,98,97,95,30.25,29.94,28,16,28,0.22
2013-5-21,60.2,57.5,53.9,59.4,56.8,53.0,99,97,93,29.98,29.86,21,8,21,0.04
2013-5-22,62.5,56.6,52.3,60.2,55.5,51.0,99,96,91,29.99,29.91,22,9,22,0.06
2013-5-23,62.6,59.9,57.8,61.3,59.3,57.4,99,98,95,29.97,29.87,34,19,34,0.20
2013-5-24,63.4,59.4,53.7,62.8,59.0,52.9,99,99,97,29.87,29.69,44,16,44,1.44
2013-5-25,53.7,50.5,44.4,52.9,48.8,41.0,98,94,88,29.77,29.68,26,9,26,0.30
2013-5-26,58.4,51.3,44.2,44.7,41.9,39.0,90,71,52,30.12,29.75,39,18,39,0.02
2013-5-27,64.8,56.5,50.6,51.6,46.6,36.3,82,70,37,30.18,30.08,32,17,32,0.00
2013-5-28,64.9,57.4,54.0,56.0,51.9,46.6,96,82,65,30.25,30.17,17,5,14,0.00
2013-5-29,60.1,57.9,57.2,58.9,56.2,-99.9,97,95,89,30.23,30.03,30,12,27,0.08
2013-5-30,62.6,60.7,58.5,61.0,58.9,57.0,98,94,91,30.10,30.01,24,13,24,0.24
2013-5-31,65.3,62.6,60.4,62.2,60.1,58.6,94,92,88,30.10,29.99,21,10,21,0.00
2013-6-1,64.0,61.8,60.2,61.6,60.1,58.7,97,94,92,30.02,29.93,26,15,26,0.00
2013-6-2,63.4,62.1,61.0,61.7,60.9,60.0,98,96,93,29.97,29.83,30,19,30,0.00
2013-6-3,63.6,61.8,60.5,63.0,61.2,60.0,99,98,96,29.88,29.81,50,17,50,4.86
2013-6-4,71.1,63.6,55.1,62.4,49.0,42.3,99,61,41,30.07,29.81,20,8,20,0.02
2013-6-5,67.7,61.1,55.3,55.8,49.9,44.8,87,67,47,30.19,30.07,21,9,22,0.00
2013-6-6,69.3,62.8,59.5,59.1,54.9,50.5,84,76,54,30.22,30.09,20,9,20,0.00
2013-6-7,66.5,59.5,57.5,65.9,57.5,53.5,98,93,77,30.11,29.73,39,14,39,3.48
2013-6-8,67.3,63.6,58.7,66.4,61.6,56.9,98,93,80,30.01,29.55,42,21,42,0.32
2013-6-9,71.8,65.8,62.0,62.9,60.6,54.9,96,84,58,30.17,30.01,24,11,24,0.00
2013-6-10,68.3,64.4,59.5,62.3,60.1,58.0,97,86,74,30.20,29.98,24,7,24,1.06
2013-6-11,66.0,62.7,57.1,64.2,62.0,55.9,100,97,92,29.98,29.55,33,16,33,2.22
2013-6-12,70.5,63.7,56.3,59.5,56.4,52.9,97,78,55,29.81,29.57,31,13,31,0.00
2013-6-13,66.0,60.4,55.6,59.6,55.5,53.0,94,84,68,29.83,29.59,29,9,29,0.40
2013-6-14,65.0,58.9,53.6,58.8,53.2,49.0,95,82,63,29.75,29.54,37,13,37,1.20
2013-6-15,74.3,66.6,60.6,60.2,54.6,40.9,83,68,32,29.95,29.75,24,11,24,0.00
2013-6-16,66.3,64.0,61.9,62.4,60.5,57.8,95,89,76,29.96,29.76,32,14,32,0.00
2013-6-17,70.0,65.6,63.8,64.1,62.8,59.7,94,91,73,29.94,29.80,25,10,25,0.06
2013-6-18,78.3,66.3,59.8,66.8,62.2,57.5,95,87,59,29.94,29.85,20,6,20,0.06
2013-6-19,71.0,64.2,58.0,58.4,55.0,48.9,96,74,50,30.17,29.84,19,9,19,0.02
2013-6-20,65.8,64.0,62.6,60.2,58.2,55.4,89,81,71,30.28,30.16,27,15,27,0.00
2013-6-21,67.1,65.1,63.1,61.0,59.2,55.5,89,81,74,30.30,30.22,28,18,28,0.00
2013-6-22,68.2,65.2,64.3,64.0,61.8,59.8,95,89,83,30.26,30.17,22,15,21,0.00
2013-6-23,68.9,66.7,64.0,67.0,65.1,63.0,98,94,88,30.20,30.06,25,16,0,0.00
2013-6-24,76.9,69.5,66.2,71.0,67.8,66.0,99,94,75,30.07,29.89,24,16,0,0.05
2013-6-25,72.3,70.3,68.6,68.5,67.4,66.0,95,91,85,29.94,29.76,23,14,23,0.00
2013-6-26,74.8,71.1,68.6,71.0,68.5,67.0,96,91,85,29.84,29.73,25,11,25,0.00
2013-6-27,71.8,68.6,66.0,69.1,67.3,65.4,99,96,90,29.85,29.75,18,6,18,0.00
2013-6-28,70.1,68.4,67.4,69.8,68.0,66.8,99,99,98,29.75,29.56,33,19,33,1.16
2013-6-29,69.8,68.6,67.4,69.8,68.0,67.0,100,98,94,29.76,29.54,53,18,53,1.80
2013-6-30,69.7,68.6,67.6,68.7,67.9,67.0,99,98,93,29.98,29.75,24,13,24,0.02
2013-7-1,70.8,69.4,68.2,70.0,68.7,67.6,99,98,95,30.12,29.97,24,17,24,0.38
2013-7-2,71.9,70.3,68.8,70.3,69.4,67.9,98,97,94,30.22,30.12,23,15,23,0.04
2013-7-3,71.7,70.4,69.2,71.1,69.9,68.9,100,98,95,30.25,30.19,28,18,28,0.06
2013-7-4,72.6,70.7,69.1,71.4,70.2,69.0,100,98,94,30.25,30.15,29,18,29,0.02
2013-7-5,73.4,71.9,70.3,71.3,70.5,69.7,98,96,93,30.19,30.08,26,16,26,0.00
2013-7-6,76.4,73.4,70.5,73.9,71.3,69.6,98,93,87,30.10,29.98,24,15,24,0.00
2013-7-7,78.3,74.7,71.7,74.9,72.6,70.9,98,93,86,30.03,29.92,24,10,24,0.00
2013-7-8,75.4,73.1,69.6,71.9,70.8,68.4,98,93,88,30.05,29.93,27,15,27,0.00
2013-7-9,78.2,71.6,67.8,72.1,69.9,67.2,99,95,81,30.10,30.02,13,4,13,0.16
2013-7-10,76.1,73.8,72.2,74.2,72.8,71.0,99,97,92,30.07,29.84,30,15,30,0.06
2013-7-11,74.2,72.3,70.1,73.2,71.3,69.8,99,97,91,29.91,29.81,29,14,29,0.06
2013-7-12,72.2,69.7,67.0,71.5,67.6,64.2,100,93,85,30.17,29.90,20,8,22,0.00
2013-7-13,76.8,70.8,67.4,72.9,69.7,66.9,99,96,86,30.31,30.17,16,6,16,0.10
2013-7-14,77.0,74.4,71.3,74.9,73.2,71.0,100,96,87,30.31,30.19,24,9,24,0.10
2013-7-15,82.9,78.3,74.7,77.2,75.2,73.5,97,90,82,30.20,30.09,12,4,12,0.00
2013-7-16,89.1,80.8,74.2,76.4,72.7,69.2,95,77,55,30.16,30.08,10,5,12,0.00
2013-7-17,84.8,78.2,74.2,74.7,72.3,68.1,92,83,64,30.19,30.05,21,9,21,0.00
2013-7-18,87.0,79.5,75.5,77.5,75.2,73.0,96,87,70,30.05,29.96,24,10,24,0.00
2013-7-19,77.9,76.8,75.2,75.7,74.9,73.4,97,94,92,29.96,29.79,28,18,30,0.00
2013-7-20,77.5,75.3,74.1,74.7,73.4,71.5,97,94,84,29.81,29.69,29,18,29,0.00
2013-7-21,82.0,74.5,70.7,74.5,69.8,66.0,96,86,63,30.00,29.81,11,5,13,0.11
2013-7-22,78.4,73.7,70.8,71.4,70.1,67.0,98,89,72,30.01,29.88,18,8,19,0.00
2013-7-23,77.8,74.6,71.5,75.9,73.6,70.9,99,97,93,29.88,29.56,28,16,29,0.00
2013-7-24,82.1,76.1,73.1,74.4,72.0,65.4,96,87,69,29.90,29.58,21,10,21,0.00
2013-7-25,73.1,65.0,62.5,65.4,60.2,57.5,94,85,69,30.05,29.89,26,11,27,0.06
2013-7-26,69.8,66.3,63.0,67.7,64.5,61.7,98,94,88,30.03,29.89,26,10,26,0.42
2013-7-27,72.5,70.3,68.2,69.8,68.1,65.2,95,93,89,30.09,30.01,23,15,25,0.00
2013-7-28,79.7,72.3,70.2,74.0,70.8,68.9,99,95,80,30.03,29.94,20,7,24,0.06
2013-7-29,76.4,72.6,70.0,73.7,70.6,68.4,97,94,88,30.05,29.99,19,9,19,0.00
2013-7-30,80.5,72.8,66.9,70.5,63.7,58.0,95,74,50,30.10,30.03,23,9,24,0.00
2013-7-31,78.6,71.9,67.4,66.5,63.8,60.3,84,76,59,30.13,30.06,20,8,20,0.00
2013-8-1,77.2,71.8,67.1,69.0,66.3,60.3,92,83,65,30.07,29.90,24,10,24,0.12
2013-8-2,77.8,71.6,67.2,70.4,67.3,61.7,96,86,68,29.90,29.81,29,15,29,0.66
2013-8-3,73.3,71.5,69.9,70.0,67.1,65.6,93,86,79,29.90,29.81,27,19,27,0.00
2013-8-4,78.0,70.3,64.2,67.0,60.5,54.8,90,72,47,29.88,29.78,24,7,24,0.08
2013-8-5,75.8,67.3,61.7,58.8,53.5,45.4,84,64,35,30.04,29.88,19,7,21,0.00
2013-8-6,77.8,68.5,60.0,62.1,54.8,46.0,83,63,36,30.17,30.03,15,7,15,0.00
2013-8-7,75.5,70.2,67.1,65.9,60.5,53.5,89,72,50,30.20,30.14,20,8,20,0.00
2013-8-8,73.0,71.0,67.7,70.9,66.9,61.5,94,87,77,30.15,30.05,24,16,26,0.00
2013-8-9,73.3,72.5,71.4,72.1,71.1,70.3,98,95,93,30.08,29.80,40,22,40,0.42
2013-8-10,79.5,74.1,71.3,72.1,66.2,55.8,99,78,52,30.01,29.81,30,13,30,0.00
2013-8-11,76.3,69.2,61.5,63.3,58.2,53.0,86,69,50,30.09,30.00,24,11,26,0.00
2013-8-12,72.1,70.3,68.9,68.8,66.4,63.0,94,88,80,30.05,29.93,22,11,22,0.00
2013-8-13,69.9,68.6,67.4,68.4,67.0,64.6,98,95,87,29.94,29.69,16,4,20,0.12
2013-8-14,73.1,69.0,64.9,66.9,58.3,51.7,95,70,52,29.96,29.67,30,12,30,0.00
2013-8-15,71.0,66.8,60.4,60.6,55.8,46.0,81,68,45,30.13,29.96,27,12,28,0.00
2013-8-16,70.8,68.4,64.7,66.3,63.1,58.8,90,83,74,30.21,30.12,22,12,22,0.00
2013-8-17,78.2,71.1,65.4,66.1,62.5,57.6,89,75,57,30.29,30.20,15,5,15,0.00
2013-8-18,75.2,69.5,64.2,66.2,62.2,55.1,92,78,65,30.28,30.09,17,3,17,0.08
2013-8-19,76.3,70.0,64.8,68.4,63.8,55.2,87,81,67,30.10,29.97,24,11,25,0.02
2013-8-20,75.3,71.1,68.1,69.0,66.0,-99.9,90,85,76,30.10,29.99,21,6,21,0.00
2013-8-21,74.5,72.2,70.2,70.2,67.7,64.4,93,86,80,30.15,30.05,20,9,20,0.00
2013-8-22,72.5,71.1,69.7,70.6,69.7,68.4,98,95,90,30.06,29.85,29,16,29,0.00
2013-8-23,76.0,71.2,64.9,69.9,62.8,55.6,98,76,54,30.09,29.82,23,8,25,0.00
2013-8-24,70.3,66.3,60.1,60.0,54.4,47.4,90,67,47,30.34,30.09,22,6,22,0.00
2013-8-25,72.6,68.5,62.8,65.4,60.4,52.7,84,76,61,30.37,30.21,25,11,25,0.00
2013-8-26,70.6,69.8,69.1,68.1,65.8,63.6,94,87,81,30.22,29.91,32,21,32,0.00
2013-8-27,74.5,69.8,67.8,71.3,68.5,66.8,98,96,87,29.91,29.83,21,6,21,3.52
2013-8-28,79.9,69.2,65.2,71.6,67.2,64.6,99,94,74,29.93,29.85,14,3,17,0.00
2013-8-29,67.3,65.1,59.7,65.7,63.3,58.0,98,94,88,30.04,29.93,20,7,20,0.02
2013-8-30,70.4,65.7,59.5,68.3,63.3,58.2,97,92,86,30.01,29.86,24,12,26,0.00
2013-8-31,71.0,70.1,69.2,69.7,68.9,68.0,97,96,94,29.88,29.83,25,17,25,0.00
2013-9-1,72.5,71.1,70.1,71.2,70.1,69.0,98,97,95,29.91,29.84,21,11,21,0.10
2013-9-2,74.0,71.4,70.5,72.8,70.7,69.6,99,98,92,29.89,29.73,23,10,23,0.20
2013-9-3,71.8,69.6,66.8,71.2,69.3,65.7,100,99,90,29.83,29.70,22,9,22,4.36
2013-9-4,74.3,69.1,63.8,66.0,63.1,60.0,90,81,64,29.94,29.81,27,13,27,0.00
2013-9-5,71.2,66.3,58.1,66.7,61.4,54.0,91,84,74,30.12,29.89,19,8,19,0.00
2013-9-6,68.4,61.1,52.3,55.2,50.2,43.9,91,68,43,30.24,30.12,16,7,18,0.00
2013-9-7,68.6,65.8,61.8,60.8,56.7,50.1,80,73,54,30.12,29.89,31,19,31,0.00
2013-9-8,76.7,68.2,56.6,64.9,57.6,42.6,91,70,46,30.09,29.75,24,12,24,0.00
2013-9-9,66.1,60.2,52.0,57.0,49.8,44.5,82,69,47,30.25,30.08,24,10,24,0.00
2013-9-10,69.7,67.6,65.4,67.3,62.8,55.4,95,85,70,30.19,30.05,28,19,32,0.00
2013-9-11,71.3,69.5,68.1,69.2,68.1,67.0,98,95,92,30.11,29.99,23,14,23,0.00
2013-9-12,71.5,70.1,69.0,69.7,68.8,68.0,98,96,93,30.01,29.70,32,16,32,0.00
2013-9-13,75.0,69.6,62.9,69.9,67.2,58.5,98,92,82,29.73,29.58,24,9,27,0.02
2013-9-14,70.1,63.7,58.9,58.8,55.9,53.7,87,76,61,30.05,29.73,17,7,18,0.00
2013-9-15,65.0,60.9,54.4,58.6,54.2,50.4,88,79,66,30.17,30.05,22,10,22,0.00
2013-9-16,66.6,62.0,52.8,61.8,56.0,42.8,90,81,66,30.20,30.02,22,8,22,0.02
2013-9-17,57.9,53.0,46.2,48.8,42.0,38.2,84,67,49,30.39,30.20,24,7,24,0.00
2013-9-18,66.1,59.6,50.9,57.2,48.6,42.5,86,68,46,30.33,30.16,23,10,23,0.00
2013-9-19,67.8,63.2,58.4,60.7,57.1,52.6,89,81,66,30.16,30.05,24,13,24,0.00
2013-9-20,67.8,64.3,60.6,63.6,60.9,57.4,94,89,83,30.09,30.02,17,9,17,0.00
2013-9-21,72.2,67.8,63.7,66.9,64.0,60.9,94,88,78,30.05,29.76,27,15,27,0.00
2013-9-22,71.3,66.6,56.0,67.3,60.7,48.9,97,82,61,29.81,29.65,41,14,41,0.38
2013-9-23,64.6,55.7,49.0,49.3,45.4,41.4,85,69,49,30.00,29.81,22,7,22,0.00
2013-9-24,66.3,54.8,48.4,51.9,45.4,41.6,84,71,49,30.00,29.81,19,8,20,0.00
2013-9-25,63.1,57.7,52.4,52.0,49.2,46.3,88,74,61,29.97,29.88,17,5,17,0.00
2013-9-26,61.7,57.6,55.1,52.0,50.4,47.3,87,77,65,30.10,29.97,16,4,16,0.00
2013-9-27,63.4,58.4,54.4,55.2,52.7,50.0,89,81,69,30.25,30.10,21,5,21,0.00
2013-9-28,69.6,60.3,52.6,58.9,53.9,49.1,92,80,64,30.31,30.24,15,6,15,0.00
2013-9-29,67.4,58.3,50.6,57.3,53.4,49.0,97,84,63,30.25,30.09,17,5,17,0.00
2013-9-30,65.0,60.1,55.7,58.0,55.9,53.0,96,86,72,30.09,29.96,19,6,19,0.00
2013-10-1,73.5,62.0,52.7,62.5,56.0,48.7,93,82,51,29.96,29.85,14,6,14,0.00
2013-10-2,73.7,67.2,62.8,64.3,61.2,57.7,94,81,69,29.95,29.82,25,11,25,0.00
2013-10-3,73.5,66.1,60.7,62.0,58.7,53.8,86,77,53,30.08,29.95,16,7,16,0.00
2013-10-4,68.3,62.5,58.4,63.2,58.2,56.1,95,86,75,30.07,30.02,15,3,15,0.00
2013-10-5,66.1,62.2,59.0,61.5,59.2,57.5,96,90,79,30.12,30.05,12,4,12,0.08
2013-10-6,64.1,61.1,59.2,62.3,58.3,53.6,96,91,76,30.20,30.11,24,9,24,0.08
2013-10-7,71.6,68.0,64.2,68.5,66.4,62.4,97,95,89,30.11,29.85,38,19,38,0.14
2013-10-8,67.5,60.9,56.0,65.2,50.6,44.1,97,70,45,30.34,29.88,19,6,19,0.00
2013-10-9,60.4,56.9,53.8,51.0,47.7,44.4,86,72,64,30.42,30.33,26,10,26,0.00
2013-10-10,63.9,59.0,55.8,57.6,54.6,47.3,93,85,73,30.33,30.12,22,10,22,0.00
2013-10-11,64.9,60.2,54.4,59.7,56.7,50.9,95,88,76,30.13,30.07,19,8,22,0.00
2013-10-12,63.9,58.9,54.7,58.6,54.5,50.6,92,85,81,30.35,30.11,28,10,28,0.00
2013-10-13,59.6,55.7,52.4,51.0,48.4,45.7,84,76,67,30.42,30.33,27,9,27,0.00
2013-10-14,64.3,54.5,46.5,51.5,48.4,44.6,94,80,60,30.40,30.26,12,4,12,0.00
2013-10-15,63.7,57.4,51.2,54.6,51.8,47.8,93,82,58,30.27,30.16,16,6,16,0.00
2013-10-16,61.2,57.4,52.5,59.1,55.1,50.5,96,92,88,30.16,29.91,15,5,15,0.00
2013-10-17,64.5,60.9,57.2,61.9,59.4,56.0,97,95,91,29.92,29.75,24,12,24,0.00
2013-10-18,66.9,63.7,58.2,62.8,55.6,48.8,97,77,54,29.93,29.65,29,14,29,0.06
2013-10-19,62.1,58.5,54.3,56.7,48.8,44.5,91,70,62,30.00,29.77,22,9,22,0.00
2013-10-20,62.2,58.6,54.3,59.0,46.1,36.0,92,65,40,30.03,29.71,28,12,28,0.00
2013-10-21,61.7,57.4,50.6,51.5,46.1,41.5,76,66,49,30.13,30.02,29,12,29,0.00
2013-10-22,63.1,60.3,52.2,57.3,54.1,44.0,87,80,73,30.02,29.71,25,12,25,0.00
2013-10-23,52.0,48.7,45.6,44.3,39.3,36.0,86,70,59,29.81,29.59,17,4,17,0.12
2013-10-24,52.9,48.9,44.5,43.3,36.2,28.5,81,63,41,29.92,29.65,29,16,29,0.00
2013-10-25,51.5,46.9,43.1,37.6,34.4,29.8,76,62,47,30.19,29.91,26,11,26,0.00
2013-10-26,57.5,51.0,44.7,47.7,40.7,33.8,78,68,59,30.19,29.88,47,24,47,0.00
2013-10-27,56.5,52.1,46.7,45.9,38.2,33.8,80,59,46,30.09,29.84,30,12,31,0.00
2013-10-28,58.7,50.1,43.4,45.9,38.2,30.8,82,64,49,30.34,30.09,32,11,32,0.00
2013-10-29,55.1,45.2,39.1,40.0,34.3,28.0,81,66,43,30.42,30.34,14,5,14,0.00
2013-10-30,56.7,50.6,45.6,49.7,44.4,37.0,90,79,71,30.38,30.20,20,4,20,0.00
2013-10-31,62.3,57.3,49.9,60.0,54.3,45.6,94,90,80,30.26,29.86,31,13,31,0.02
2013-11-1,65.3,61.9,59.1,62.7,59.7,57.0,96,92,88,29.86,29.55,50,27,50,0.00
2013-11-2,59.9,57.1,55.4,57.8,53.2,-99.9,95,88,77,29.73,29.61,16,-2,16,0.00
2013-11-3,55.2,45.7,36.4,48.8,39.5,22.0,92,79,53,30.39,29.72,26,7,26,0.00
2013-11-4,42.9,37.9,33.2,31.6,27.1,23.0,77,65,51,30.72,30.38,24,7,24,0.00
2013-11-5,51.6,42.8,34.7,40.0,33.6,28.0,81,70,56,30.72,30.54,13,5,13,0.00
2013-11-6,57.2,52.5,45.6,54.7,47.0,37.4,95,82,65,30.55,30.10,24,9,24,0.00
2013-11-7,59.4,55.1,45.0,58.6,53.3,37.6,98,94,75,30.10,29.68,32,16,32,1.24
2013-11-8,49.5,43.3,39.6,38.0,30.3,-99.9,80,61,50,30.14,29.84,31,13,34,0.00
2013-11-9,50.5,43.3,38.0,42.2,30.5,25.4,76,61,47,30.25,30.06,21,11,24,0.00
2013-11-10,55.0,51.2,46.2,47.2,42.9,36.5,78,73,61,30.07,29.74,30,19,37,0.00
2013-11-11,53.8,47.9,42.5,46.6,36.3,29.0,78,64,44,30.14,29.90,35,21,38,0.00
2013-11-12,53.8,38.4,29.9,47.0,30.9,18.2,94,75,60,30.20,29.91,34,12,34,0.10
2013-11-13,38.5,32.9,27.1,24.4,19.1,15.9,72,57,41,30.30,30.19,24,12,25,0.00
2013-11-14,50.3,44.7,35.0,38.5,32.0,22.0,82,61,38,30.23,30.08,28,20,29,0.00
2013-11-15,53.2,50.8,47.0,48.7,43.6,34.0,92,77,60,30.25,30.17,24,15,24,0.00
2013-11-16,53.2,50.1,46.3,48.6,44.2,34.8,95,81,57,30.34,30.23,18,7,19,0.00
2013-11-17,55.9,52.0,46.6,55.3,50.5,45.0,100,95,80,30.34,29.86,20,9,21,0.18
2013-11-18,59.9,55.2,50.3,60.0,51.7,37.9,99,89,58,29.87,29.59,44,18,47,0.44
2013-11-19,50.7,42.6,33.0,39.0,27.3,19.9,65,55,42,30.29,29.69,26,12,28,0.00
2013-11-20,41.3,35.0,29.5,23.5,18.3,13.3,66,51,32,30.61,30.29,18,6,19,0.00
2013-11-21,45.8,40.5,31.1,40.1,30.5,20.0,82,67,54,30.64,30.39,17,6,17,0.00
2013-11-22,51.6,49.2,45.2,51.0,46.9,40.0,97,92,80,30.40,29.84,22,7,23,0.36
2013-11-23,50.5,43.7,32.8,48.2,30.7,18.8,95,61,37,29.90,29.81,38,13,40,0.00
2013-11-24,33.8,26.9,23.6,21.3,11.5,-2.4,67,52,26,30.23,29.82,41,21,44,0.00
2013-11-25,42.4,29.0,20.9,35.3,12.3,0.8,80,51,26,30.41,30.21,33,13,33,0.00
2013-11-26,47.8,42.7,40.0,46.7,35.1,26.0,96,75,58,30.36,30.01,35,14,36,0.20
2013-11-27,58.9,51.5,40.0,58.3,50.3,35.0,100,95,82,30.04,29.18,54,24,57,2.40
2013-11-28,40.2,34.0,28.4,36.0,22.2,14.2,84,62,46,30.48,29.53,37,19,39,0.00
2013-11-29,37.1,30.8,24.5,19.5,15.8,10.0,66,54,43,30.74,30.47,17,6,18,0.00
2013-11-30,40.8,31.0,22.0,33.5,21.3,11.0,77,67,54,30.79,30.44,21,9,22,0.00
2013-12-1,47.2,44.8,40.1,46.4,41.3,33.0,100,88,74,30.46,30.00,27,13,27,0.00
2013-12-2,41.6,39.3,37.8,41.0,38.1,36.0,100,95,92,30.01,29.91,11,3,12,0.02
2013-12-3,49.7,41.4,36.7,39.6,36.3,34.0,96,83,57,29.99,29.83,14,5,17,0.00
2013-12-4,46.1,40.7,36.1,40.5,35.7,30.6,94,83,60,30.23,29.97,15,6,15,0.00
2013-12-5,51.4,46.9,40.3,51.0,45.5,38.5,98,95,91,30.23,29.97,23,9,25,0.06
2013-12-6,52.5,47.4,37.5,52.2,46.9,36.3,100,98,95,30.13,29.91,19,7,19,0.72
2013-12-7,42.0,36.1,31.4,37.0,30.8,23.9,96,82,66,30.48,30.07,20,6,17,0.38
2013-12-8,33.1,30.6,27.4,25.3,19.9,17.0,77,64,54,30.62,30.48,17,5,17,0.00
2013-12-9,43.7,38.6,32.2,43.1,37.0,24.4,98,94,70,30.50,29.90,32,12,32,0.50
2013-12-10,38.5,34.4,29.7,36.5,32.0,22.7,97,91,73,30.05,29.81,23,9,27,0.12
2013-12-11,33.5,30.9,28.4,25.8,22.4,18.6,85,71,57,30.28,30.05,28,18,27,0.00
2013-12-12,31.7,25.7,23.0,22.4,12.7,3.9,77,58,38,30.28,30.12,27,11,27,0.00
2013-12-13,32.5,27.7,22.8,19.6,16.3,11.9,72,62,51,30.37,30.05,31,16,34,0.00
2013-12-14,32.5,22.6,15.9,31.7,16.1,1.4,97,77,51,30.60,30.11,33,10,33,0.00
2013-12-15,50.3,36.0,28.8,49.8,33.6,24.4,100,91,73,30.11,29.35,48,17,48,1.04
2013-12-16,32.9,29.5,24.7,26.2,17.8,11.4,78,62,47,30.25,29.80,30,14,30,0.00
2013-12-17,35.1,24.3,17.0,34.3,18.8,10.0,100,80,60,30.29,29.89,22,8,22,0.08
2013-12-18,36.2,29.5,20.8,26.2,23.6,19.0,94,79,57,30.14,29.81,26,13,26,0.02
2013-12-19,43.6,37.3,30.6,37.1,30.7,24.0,83,77,71,30.17,30.00,34,16,35,0.02
2013-12-20,45.7,41.8,37.8,43.0,39.0,33.0,96,90,77,30.17,29.99,24,10,24,0.00
2013-12-21,46.6,43.8,41.9,45.8,43.0,41.0,98,97,95,30.05,29.94,24,12,24,0.00
2013-12-22,54.2,46.5,42.4,53.9,46.1,41.7,99,99,94,30.03,29.86,33,13,33,0.24
2013-12-23,49.1,41.6,36.2,48.6,41.1,35.5,99,98,96,30.09,29.95,25,5,25,0.82
2013-12-24,39.6,34.6,30.2,39.1,27.1,19.8,98,75,56,30.22,30.03,20,7,20,0.06
2013-12-25,30.8,23.2,20.4,24.1,10.6,5.0,77,58,47,30.58,30.22,31,8,31,0.00
2013-12-26,39.5,34.2,25.0,38.0,30.5,18.8,96,86,77,30.53,30.07,31,13,31,0.28
2013-12-27,37.2,33.4,30.4,27.2,24.9,22.0,84,71,55,30.31,30.22,23,11,23,0.02
2013-12-28,43.8,39.6,33.9,38.3,34.5,25.9,94,82,73,30.27,30.03,29,15,29,0.00
2013-12-29,50.7,41.7,39.3,50.1,40.3,37.0,99,95,90,30.07,29.31,41,11,41,2.26
2013-12-30,42.5,36.2,24.8,39.2,29.0,15.0,97,77,50,30.15,29.49,30,12,30,0.00
2013-12-31,28.9,24.5,18.5,22.2,13.3,1.8,76,62,47,30.20,30.05,24,10,24,0.00
2014-1-1,30.6,27.1,24.1,18.6,13.3,10.0,69,56,47,30.40,30.20,28,11,28,0.00
2014-1-2,31.9,28.4,24.2,30.9,26.0,13.9,96,91,57,30.36,29.68,40,14,40,0.00